Simultaneous Nadir Overpasses (SNOs) Predictions

Prediction of SNOs between AQUA and METOP-B Satellite Orbit:

Table of predicted SNOs for the next 14.0 days since TLE Epoch: 10/25/2025
Index Date (AQUA) Time (AQUA) Lat,Lon (AQUA) SZA (AQUA ) Date (METOP-B) Time (METOP-B) Lat,Lon (METOP-B) SZA (METOP-B ) Distance(km) Time Diff (sec)
1 10/27/2025 05:57:09 -77.80, -87.51 89.34 10/27/2025 05:56:00 -77.71, -89.63 89.47 50.99 69
2 10/27/2025 06:46:31 77.99, 79.28 90.85 10/27/2025 06:46:33 78.00, 79.15 90.86 3.26 2
3 10/29/2025 17:55:18 77.98, -87.78 91.66 10/29/2025 17:54:24 78.00, -87.84 91.68 2.80 54
4 10/29/2025 18:44:35 -78.01, 79.72 88.30 10/29/2025 18:45:04 -78.03, 79.67 88.27 2.45 29
5 11/01/2025 05:53:21 -78.01, -87.37 87.50 11/01/2025 05:52:55 -78.02, -87.37 87.49 1.37 26
6 11/01/2025 06:42:39 78.03, 80.20 92.53 11/01/2025 06:43:34 78.07, 80.22 92.58 4.29 55
7 11/03/2025 17:02:01 -77.79, 106.53 86.92 11/03/2025 17:00:53 -77.71, 104.13 87.05 57.36 68
8 11/03/2025 17:51:24 78.04, -86.94 93.31 11/03/2025 17:51:25 78.05, -86.85 93.33 2.56 1
9 11/06/2025 05:00:07 78.01, 106.10 94.04 11/06/2025 04:59:16 78.02, 106.05 94.05 2.23 51



Historial Predications of SNOs between AQUA and METOP-B
